GFSSGP_850_temp_000.txt.gz
Temp
25 25 24 24 23 25 24 24 26 25 25 26 26 25 23 23 22 18 20 21 21 19 19 20 20 19 18 18 18 18 17 18 18 17 18 18 18 18 17 17 17 17 17 17 17 17 17 17 17
24 25 24 24 24 25 24 26 24 25 25 26 26 25 23 22 21 20 21 20 20 19 20 20 20 19 18 18 18 18 17 17 17 18 18 17 17 17 17 18 17 17 17 18 17 17 17 17 17
24 23 23 24 26 24 24 25 24 25 25 26 26 24 22 21 20 20 20 20 20 19 20 20 19 18 18 18 18 18 18 17 17 17 18 18 18 18 18 17 17 18 17 17 18 18 17 17 17
23 23 24 25 26 26 25 25 25 26 26 26 24 21 20 19 19 19 19 20 20 19 18 19 19 18 18 18 17 18 18 18 18 19 19 19 18 18 18 18 18 17 17 17 18 18 18 18 17
23 24 24 26 25 26 26 25 25 26 26 26 25 22 19 19 19 19 19 19 19 18 18 18 18 18 18 18 17 18 18 18 19 19 19 19 18 19 19 18 18 18 18 18 18 18 18 17 18
23 25 25 25 26 26 26 25 26 26 26 25 23 22 20 18 19 19 19 18 18 18 18 18 18 18 18 18 18 18 18 19 19 19 18 18 18 18 19 18 18 19 18 18 18 18 18 18 18
23 23 24 26 24 25 26 25 26 26 26 25 24 22 20 19 19 19 19 18 18 18 18 17 17 17 18 18 18 19 19 19 19 18 18 17 16 17 18 18 18 18 18 18 18 18 18 18 18
22 24 25 27 24 24 25 25 25 26 22 23 23 22 20 19 18 19 19 18 18 18 18 17 17 17 17 18 18 18 19 18 18 19 18 18 17 17 18 17 17 18 19 18 18 18 18 17 17
22 22 23 26 26 25 25 24 24 23 23 22 21 20 19 19 18 19 19 18 17 17 17 17 16 16 16 16 17 18 18 18 18 18 18 18 17 17 17 16 15 16 17 17 16 16 16 17 17
23 23 24 24 26 24 24 24 23 23 22 21 19 18 18 19 19 20 19 18 17 17 16 16 16 16 17 17 17 17 17 17 17 17 18 18 17 17 16 15 14 15 14 16 15 15 15 16 15
25 23 24 24 24 25 24 24 23 23 21 21 19 18 18 19 19 19 18 17 16 16 17 16 17 17 17 17 17 17 17 17 17 17 18 18 17 17 16 15 15 14 14 14 14 14 14 14 15
23 24 24 23 22 24 24 24 23 23 22 22 20 18 18 18 18 18 17 17 16 17 18 17 17 17 17 17 17 17 17 17 17 17 17 17 17 17 16 15 14 13 12 12 13 14 14 14 14
23 24 23 22 22 23 24 22 22 21 20 19 18 18 18 18 18 17 17 16 16 16 17 18 17 17 17 17 16 16 16 16 17 16 16 17 16 16 15 15 14 13 13 13 13 13 13 13 14
25 23 23 21 22 23 23 22 21 21 18 17 17 17 17 17 17 16 16 16 15 15 16 17 17 17 16 15 15 15 16 16 16 15 14 14 13 13 13 13 13 13 12 12 12 12 12 12 13
24 22 22 22 22 22 22 20 19 21 18 17 16 17 17 16 16 16 16 16 15 15 16 17 16 16 16 15 15 15 15 15 15 14 12 12 12 12 11 10 9 9 10 11 11 11 11 11 11
23 23 20 22 22 22 21 19 21 21 18 18 17 17 17 16 16 16 16 15 15 14 15 16 16 15 15 15 14 14 14 14 13 12 12 11 11 11 10 9 9 8 8 8 8 9 9 9 10
22 21 22 21 23 22 20 20 23 20 18 18 18 18 17 16 15 15 15 15 14 14 14 15 15 14 14 14 13 13 13 13 12 11 11 10 10 9 9 9 8 8 8 8 7 7 7 7 7
22 21 23 23 22 22 20 19 20 19 18 18 19 18 18 17 15 15 14 14 13 14 14 13 13 13 13 13 12 12 12 11 11 10 9 10 9 9 8 8 7 6 6 6 6 6 5 5 6
24 23 23 25 24 21 21 21 21 21 18 18 18 19 19 18 16 15 14 13 12 13 13 13 13 12 12 12 12 12 12 10 9 9 8 8 8 7 7 6 6 5 5 5 5 5 5 5 5
23 22 22 24 22 22 21 21 22 22 20 18 18 18 19 18 17 15 13 12 12 12 12 11 11 11 11 12 12 11 10 9 8 7 6 6 6 6 6 6 5 5 5 5 5 4 4 4 4
22 22 22 23 22 22 20 19 20 22 24 21 18 18 19 19 18 16 14 12 12 11 11 11 10 10 10 11 10 9 9 8 7 7 6 6 6 6 6 5 5 5 5 5 4 4 4 4 4
21 23 23 22 21 19 20 18 21 22 21 22 22 19 19 19 19 17 15 12 12 11 11 10 10 10 9 9 8 8 8 6 6 6 6 6 6 5 5 5 5 5 5 4 4 4 4 4 4
22 21 21 21 20 19 20 18 20 24 23 22 22 23 19 19 19 17 15 13 12 11 10 10 10 8 8 8 7 7 6 6 5 5 6 6 5 5 5 5 5 5 4 4 4 4 4 3 3
20 20 20 19 18 16 19 20 20 22 24 23 23 23 22 19 18 17 15 14 12 11 10 9 9 8 8 8 7 6 6 5 5 5 5 5 5 5 4 4 4 4 4 4 4 4 3 3 3
19 19 17 16 15 16 22 21 22 25 25 25 23 23 21 19 17 16 15 13 12 11 10 9 9 8 7 7 6 6 6 5 5 5 5 5 4 4 4 4 4 4 4 3 3 3 3 3 3
17 18 17 18 18 20 20 18 21 24 23 23 22 22 20 19 17 15 14 13 12 11 10 9 8 7 7 7 6 6 6 6 5 5 5 4 4 4 4 4 4 4 3 3 3 3 3 3 3
19 17 19 19 20 18 20 22 23 24 19 20 21 20 19 17 16 15 14 13 12 11 10 9 8 8 7 7 7 6 6 6 5 5 5 4 4 4 4 4 4 3 3 3 3 3 2 3 2
20 20 17 16 17 17 20 20 20 24 20 18 17 18 19 17 16 15 14 13 12 11 10 9 9 8 7 7 7 6 6 6 5 5 5 4 4 4 4 4 4 3 3 3 3 3 3 2 2
17 17 18 19 18 17 18 19 24 23 23 19 17 19 18 17 16 15 14 13 12 11 10 10 9 8 8 7 7 6 6 5 5 5 4 4 4 4 4 4 4 3 3 3 3 2 2 2 1
19 19 19 18 18 19 19 20 23 23 22 22 21 20 18 17 16 15 14 13 12 11 11 10 9 8 8 7 7 6 6 5 5 4 4 4 4 4 4 4 3 3 3 3 3 2 2 2 1

GFSSGP_850_temp_003.txt.gz
Temp
25 25 26 25 22 19 23 23 22 23 23 23 22 21 20 20 20 17 20 19 18 18 19 20 20 19 18 18 18 18 18 18 18 18 18 18 19 18 18 18 18 18 18 18 18 18 18 18 17
25 25 25 25 20 20 20 22 21 23 25 24 23 22 21 19 20 20 20 19 19 19 20 20 20 19 18 18 18 18 18 18 18 18 18 18 19 19 19 19 18 18 17 17 18 18 18 18 18
25 25 24 20 21 21 20 22 22 24 25 25 22 22 20 19 20 20 19 19 20 19 19 20 19 18 18 18 18 18 18 19 19 19 20 19 19 19 19 19 19 19 18 18 18 18 18 18 18
24 24 24 20 22 22 21 20 24 24 25 25 23 18 19 19 20 19 19 19 20 19 19 19 18 18 18 18 18 18 19 19 19 19 19 19 19 19 19 19 19 19 18 18 18 18 18 18 18
23 23 20 21 23 22 22 24 25 23 25 23 23 19 18 19 19 19 19 19 19 18 18 18 18 18 18 18 18 19 19 19 19 19 19 18 18 18 19 19 19 19 19 19 18 18 18 18 18
23 23 20 21 22 22 22 25 25 25 23 21 20 19 18 18 19 19 19 18 18 17 17 17 17 18 18 18 19 19 19 19 19 18 18 17 17 16 18 18 18 19 19 19 19 18 18 18 18
21 18 20 23 21 23 22 25 24 24 23 22 22 18 18 18 19 18 18 18 17 17 16 17 17 17 18 18 18 18 18 19 18 18 18 18 18 17 18 17 18 18 18 18 18 18 18 18 17
22 19 22 22 21 22 23 25 24 24 22 22 22 17 17 19 18 18 18 18 17 17 16 16 16 16 17 18 17 18 18 18 19 18 19 18 18 18 17 18 17 17 18 16 17 17 18 18 17
22 17 19 22 21 22 24 22 24 23 22 21 20 20 20 19 18 18 18 18 17 17 16 16 16 15 16 16 18 18 18 18 18 18 18 19 18 18 18 17 16 16 16 16 16 16 15 16 17
20 17 22 22 22 21 23 23 23 22 21 18 19 19 19 19 18 18 18 18 17 17 17 17 17 16 17 17 17 17 17 18 18 18 18 18 18 18 17 17 16 16 16 16 16 16 16 15 15
22 19 23 22 23 23 23 22 23 21 19 20 19 18 19 19 19 18 18 18 17 17 17 17 18 18 17 17 17 17 17 17 17 18 18 17 17 17 17 17 16 16 16 16 16 16 15 14 15
22 23 23 22 23 23 22 23 22 22 20 22 21 20 19 19 19 18 18 17 17 17 17 18 18 18 18 17 17 17 17 17 17 17 18 17 17 17 17 16 15 15 15 15 15 15 15 15 14
22 22 22 21 22 22 23 22 21 21 20 21 20 19 19 18 19 18 18 17 17 17 17 17 18 18 18 18 17 17 17 17 17 17 17 16 16 16 16 15 15 15 14 15 14 14 14 14 14
22 22 21 21 21 21 21 21 22 20 19 19 18 18 18 18 18 17 17 17 17 17 17 17 18 18 18 18 17 17 16 16 16 16 16 16 15 14 14 14 13 13 13 12 13 13 13 13 13
23 21 21 20 21 20 21 19 18 21 19 19 18 18 18 18 17 18 17 17 17 17 17 17 17 17 18 17 16 16 16 16 15 15 14 14 13 12 12 12 11 11 11 11 11 11 11 11 12
21 20 18 18 19 21 20 15 17 20 19 18 18 17 17 17 17 17 17 16 16 16 17 17 16 17 17 16 16 16 15 15 15 14 13 12 12 11 11 10 9 9 8 8 9 9 10 10 10
18 16 17 20 19 19 18 16 19 20 19 18 17 17 17 17 16 16 17 16 15 16 16 16 16 16 16 15 15 15 15 14 14 13 13 12 11 11 10 10 9 8 7 7 7 7 6 6 6
17 17 19 18 19 18 16 17 18 17 17 17 18 17 17 17 17 17 16 15 15 15 15 15 15 15 15 15 15 14 14 14 13 12 12 11 10 10 10 9 8 7 6 6 6 6 5 5 5
19 20 19 20 20 18 17 18 17 18 17 16 17 17 17 17 18 17 16 15 14 15 14 14 14 14 14 14 14 13 13 13 12 12 11 10 10 9 8 7 6 6 6 5 5 5 4 4 4
19 18 19 19 20 19 17 17 18 17 17 17 17 17 17 17 17 17 15 15 14 15 14 13 13 13 13 13 13 13 12 12 11 11 10 8 8 7 6 6 6 6 5 5 5 4 4 4 4
19 19 19 19 21 20 19 16 17 18 19 19 17 19 19 19 18 17 16 15 15 14 14 13 12 12 12 12 12 12 11 11 10 10 8 7 6 6 6 6 5 5 5 5 5 4 4 4 4
18 20 20 20 18 16 17 17 17 19 19 18 18 17 18 18 18 18 16 15 15 14 14 12 11 11 11 11 11 11 11 10 10 9 8 7 6 6 5 5 5 5 5 5 4 4 4 4 4
18 20 20 20 18 17 17 15 16 17 18 18 18 18 17 18 19 18 17 16 15 15 14 12 11 10 10 10 10 10 10 10 9 8 8 6 6 6 6 5 5 4 4 4 4 4 4 4 4
18 18 18 17 14 13 15 15 20 17 20 20 19 20 20 18 19 18 18 17 15 14 13 12 11 10 10 9 9 9 9 8 8 7 6 6 5 5 5 5 4 4 4 4 4 3 3 3 3
18 15 14 14 12 13 16 15 20 18 19 20 21 22 22 20 19 18 18 16 15 14 13 12 11 10 9 9 9 8 8 7 7 7 6 5 5 5 5 5 4 4 4 3 3 3 3 3 3
15 15 13 14 13 17 16 15 18 19 23 24 25 26 23 21 20 19 18 17 16 14 13 12 11 10 9 9 8 8 7 7 7 6 5 5 5 5 4 4 4 4 3 3 3 3 3 3 3
15 15 18 15 16 14 16 17 18 20 20 18 20 21 21 21 20 19 18 17 16 15 14 12 11 10 9 9 8 7 7 7 6 6 5 5 5 4 4 4 4 4 4 3 3 3 3 3 3
16 15 14 13 14 13 15 15 17 20 22 16 15 17 20 21 20 18 17 17 15 14 13 12 11 10 10 8 8 7 7 7 7 6 5 5 4 4 4 4 4 4 3 3 3 3 3 3 2
15 16 15 15 12 13 15 14 16 20 19 15 17 17 19 19 19 18 17 16 15 14 13 12 11 10 9 8 8 7 7 7 6 6 5 5 4 4 4 4 4 3 3 3 3 3 3 3 2
18 18 18 15 13 14 17 18 20 18 17 16 16 19 20 19 18 18 17 16 14 14 12 12 11 10 9 8 8 7 7 6 6 6 5 5 4 4 4 4 3 3 3 3 3 3 3 3 3

GFSSGP_850_temp_006.txt.gz
Temp
24 24 25 24 20 18 21 22 22 23 21 21 21 21 19 19 19 17 18 19 18 18 19 19 19 19 18 18 18 18 18 18 19 19 19 19 19 19 19 19 18 18 18 18 18 18 18 18 18
24 25 24 24 20 19 19 21 22 22 21 21 21 20 19 19 19 18 18 18 18 19 19 19 19 18 18 18 18 18 18 18 19 19 19 19 19 18 18 18 18 18 18 18 18 18 18 17 17
24 25 25 18 19 21 19 21 21 22 23 23 21 20 20 19 19 19 18 18 19 19 19 19 19 18 18 18 18 18 19 19 19 19 19 19 19 19 19 19 18 18 18 18 18 18 18 17 17
25 24 23 19 22 22 21 20 23 23 23 23 21 18 19 19 19 19 18 18 19 19 19 19 18 17 17 18 19 19 19 19 19 18 18 18 18 18 19 19 19 19 18 18 18 18 17 17 17
24 23 19 20 22 22 20 22 23 22 22 22 21 17 18 19 19 18 18 18 19 18 18 18 18 17 17 18 19 19 19 19 19 19 19 19 19 18 19 19 19 19 19 19 18 18 18 17 17
23 21 19 20 21 22 22 24 24 23 21 21 20 18 18 18 19 18 18 18 18 18 18 18 17 17 18 18 18 18 18 18 19 19 19 19 19 18 18 19 19 19 19 19 19 18 18 18 17
20 17 19 20 19 21 21 24 23 22 21 21 21 16 18 18 18 18 18 18 17 17 17 17 17 17 17 17 18 18 18 18 18 18 19 18 18 18 18 18 19 19 19 19 18 18 18 18 17
22 18 20 20 19 21 23 24 24 23 21 21 21 16 17 18 18 18 17 17 17 16 16 16 16 16 17 18 18 18 18 18 18 18 18 18 18 18 18 18 19 19 19 19 18 18 17 17 17
21 17 18 22 20 22 23 22 23 23 21 21 21 21 21 18 18 18 18 17 16 16 16 16 16 16 17 18 18 18 18 18 18 18 18 18 18 18 18 18 18 18 18 18 17 16 16 17 17
19 16 19 21 21 20 22 22 22 21 19 18 19 21 20 18 18 18 18 17 16 16 16 16 16 17 18 18 17 17 17 18 18 18 18 18 18 18 18 18 17 17 16 16 15 15 16 16 16
20 17 20 22 22 22 22 22 22 20 18 19 19 20 19 19 18 18 18 18 18 17 16 16 16 16 17 17 17 17 17 17 18 18 18 18 18 18 17 17 17 17 16 16 16 15 15 14 15
21 21 22 22 23 23 20 22 21 22 22 23 21 21 20 19 18 18 18 18 18 17 17 16 16 16 17 17 17 17 17 17 17 18 17 17 17 17 17 17 16 16 16 15 15 15 15 15 14
20 21 22 22 22 22 22 21 21 20 22 22 21 20 19 19 18 18 18 18 18 18 17 17 17 17 17 17 17 17 17 17 17 17 17 17 16 16 16 16 15 15 15 15 15 15 15 15 15
22 21 21 21 21 21 20 20 20 21 20 22 21 20 20 19 19 18 18 18 18 18 18 17 17 17 17 17 17 17 17 16 16 16 16 16 16 15 15 15 14 14 14 14 13 13 14 13 14
21 20 19 19 20 19 20 18 17 21 19 20 19 20 19 19 19 18 19 18 18 18 17 17 17 17 16 16 16 16 16 16 16 16 15 15 15 14 14 13 13 12 12 12 12 12 12 12 12
20 18 17 17 18 20 20 15 17 20 18 18 18 19 19 19 19 19 18 18 18 18 17 17 16 16 16 16 15 16 16 16 15 15 15 14 14 13 12 11 11 11 11 10 10 10 10 10 10
16 15 15 17 17 18 17 16 17 20 18 18 18 18 18 18 18 18 18 17 18 18 17 16 16 16 16 15 15 15 15 15 15 14 14 13 12 11 11 10 9 9 9 8 7 7 7 8 8
15 15 15 17 18 16 15 16 16 18 16 17 18 18 18 18 18 18 17 17 16 16 16 15 15 15 15 14 15 15 15 14 14 14 13 12 11 10 10 9 9 8 7 6 6 5 5 5 5
16 16 17 18 19 16 16 17 17 17 15 15 16 16 18 19 20 18 17 16 16 15 15 15 15 14 14 14 14 14 14 14 13 13 13 12 11 10 9 9 8 7 6 6 5 5 4 4 4
16 16 15 16 18 17 16 16 17 15 15 16 17 16 18 18 18 18 17 16 15 15 14 14 14 14 14 14 14 13 13 13 12 12 12 11 10 9 9 8 6 6 5 5 5 4 4 4 4
16 16 16 17 19 17 17 16 16 16 17 18 18 18 18 19 20 19 18 17 16 15 15 14 14 14 14 13 13 13 13 12 12 12 11 10 9 9 7 6 6 5 5 5 4 4 4 4 4
16 17 18 18 17 15 16 17 15 16 16 15 17 18 17 18 18 19 19 17 16 16 15 14 14 13 13 13 12 12 12 12 11 11 10 9 8 7 6 6 5 5 5 4 4 4 4 3 3
17 17 17 18 16 16 16 14 17 16 16 17 17 20 21 19 17 18 19 19 18 16 16 15 14 13 13 12 12 12 11 11 11 10 9 9 7 7 6 6 5 5 5 4 4 4 3 3 3
18 18 14 12 12 13 16 15 19 17 18 20 21 22 22 21 19 18 19 18 18 17 15 14 14 13 12 11 11 11 11 10 10 10 9 8 7 6 6 5 5 5 4 4 3 3 3 3 3
17 14 13 13 12 14 15 14 19 17 17 17 19 23 23 22 19 18 17 18 17 17 15 14 13 13 12 11 11 11 10 9 9 9 8 7 7 6 6 5 5 5 4 4 3 3 3 3 3
14 15 13 13 13 17 14 14 18 16 21 22 21 24 23 22 21 21 20 19 18 17 15 14 14 12 11 11 11 10 9 9 9 8 8 7 6 5 5 5 5 4 4 3 3 3 3 3 3
16 14 16 15 14 12 13 14 17 16 16 16 18 21 23 23 22 23 21 19 19 18 16 15 14 13 12 11 10 9 9 8 8 8 7 6 6 5 5 4 4 4 4 3 3 3 3 3 3
16 15 14 12 14 13 15 14 16 17 20 19 15 16 23 23 21 21 21 20 19 18 17 15 14 14 13 12 10 10 9 8 8 7 7 6 5 5 5 4 4 4 4 3 3 3 3 3 2
14 15 14 13 12 15 16 17 14 19 18 17 16 19 22 22 22 22 21 20 19 18 16 15 14 13 12 11 10 9 8 8 7 7 7 6 5 5 5 4 4 4 4 3 3 3 2 2 2
17 17 17 15 15 10 16 18 19 16 16 16 19 21 21 20 21 21 20 19 18 17 16 15 14 13 13 11 10 9 8 7 7 7 7 6 5 5 4 4 4 4 3 3 3 2 2 2 2

GFSSGP_850_temp_012.txt.gz
Temp
23 24 23 23 20 17 19 20 20 20 20 20 21 20 19 18 19 18 18 18 18 19 19 19 19 18 18 18 18 18 17 18 18 18 18 18 18 18 17 17 16 16 17 18 18 18 18 17 18
24 24 24 23 18 19 19 20 20 19 20 19 20 19 19 18 18 18 18 18 17 18 19 19 19 18 18 18 18 18 19 19 19 19 19 18 18 18 18 18 18 17 17 17 17 17 17 17 17
24 24 24 17 16 19 19 20 20 20 20 21 20 19 19 18 18 18 18 18 18 19 19 19 18 18 17 18 18 19 19 19 19 18 19 18 19 18 18 18 18 18 17 18 17 17 17 17 17
24 23 22 19 21 21 21 19 20 18 19 20 20 18 19 19 19 18 18 18 18 19 19 19 18 17 17 18 18 18 19 19 18 19 19 18 19 19 19 18 18 18 17 17 17 17 17 16 17
23 23 18 19 21 21 20 20 20 18 20 20 20 17 19 19 19 19 18 18 18 18 19 18 17 17 17 18 18 18 19 18 19 19 19 19 19 18 18 19 19 19 18 17 17 17 17 16 16
23 21 18 19 20 21 20 21 21 20 20 19 20 18 19 19 19 18 18 18 18 18 19 18 16 17 18 18 18 18 19 18 18 18 18 18 18 18 18 19 19 19 19 18 18 19 17 17 16
20 17 19 19 20 21 21 21 20 20 19 20 20 16 18 18 18 18 18 18 18 18 18 17 16 17 17 18 18 18 19 18 18 18 18 18 18 18 17 18 18 18 18 17 18 17 17 17 16
21 16 19 18 18 20 21 22 22 22 20 21 21 18 18 20 18 18 17 17 17 17 17 17 16 16 17 18 18 18 18 18 18 18 18 19 19 18 18 18 18 18 17 16 16 16 16 17 16
20 16 17 19 18 20 21 20 22 22 21 20 21 21 21 20 19 17 17 16 16 16 17 17 16 16 17 18 18 18 18 18 18 18 18 19 19 18 18 18 18 18 17 16 16 15 15 15 15
18 15 17 18 18 19 21 21 21 21 19 19 20 21 21 19 19 19 18 17 17 17 17 16 16 17 17 18 18 18 18 18 18 18 18 18 18 18 18 18 18 18 17 17 16 16 15 15 15
17 16 17 20 21 21 20 19 21 20 17 21 23 23 21 20 19 19 19 19 19 18 17 17 17 17 17 17 18 18 18 18 18 18 18 18 18 18 17 17 17 16 16 16 16 16 16 15 15
19 19 19 21 21 21 19 20 19 20 23 24 24 23 22 21 20 19 19 19 18 18 18 17 17 17 17 17 17 17 17 17 17 17 17 17 17 17 17 17 16 16 15 15 15 15 15 15 15
18 18 20 21 21 21 20 20 19 20 23 23 23 22 21 21 21 21 20 19 19 18 18 17 17 17 17 17 17 17 17 17 17 17 17 17 17 16 17 16 16 16 15 15 15 14 14 14 14
19 19 19 20 20 20 19 19 19 21 23 22 22 22 22 22 21 21 19 19 18 18 18 17 17 16 16 16 16 16 16 17 16 16 16 16 16 16 16 16 15 15 14 14 14 14 14 14 13
19 17 16 17 18 18 19 16 15 20 22 22 22 22 21 22 21 20 21 20 20 18 18 17 17 16 16 16 16 16 16 16 16 16 16 15 15 15 15 15 14 14 14 13 13 13 13 13 13
17 17 16 16 16 18 19 17 16 21 20 21 21 21 21 21 21 21 20 20 20 18 18 17 17 16 16 16 16 16 16 16 15 15 15 15 15 14 14 14 14 13 13 12 12 13 13 12 12
12 14 14 14 15 17 16 15 16 20 18 18 20 21 21 21 20 20 20 20 19 19 18 17 17 16 16 16 15 15 15 15 15 15 15 14 14 14 14 13 13 13 12 12 12 12 12 12 11
13 13 13 14 16 15 14 13 15 18 17 18 20 19 19 20 21 21 20 20 19 18 18 17 17 16 16 15 15 15 15 15 15 14 14 14 13 13 13 13 12 12 11 11 11 10 10 10 10
15 14 13 14 15 15 13 14 15 17 15 16 19 20 20 20 23 21 21 20 19 18 18 17 17 16 16 15 15 15 15 15 14 14 14 13 13 13 12 12 11 11 10 9 9 9 8 8 8
13 13 13 13 14 14 13 15 16 16 15 17 18 19 21 21 22 21 20 20 19 19 18 17 17 16 16 16 16 15 15 15 14 13 13 13 12 12 12 11 11 10 9 8 8 7 7 6 6
13 12 13 14 13 13 14 16 16 14 16 16 17 20 21 20 21 21 21 20 19 19 19 18 17 17 16 16 15 15 14 13 13 13 13 13 12 11 11 10 10 9 8 8 7 6 6 5 5
13 13 14 14 13 14 15 16 19 16 16 14 15 17 19 21 21 20 19 19 20 20 19 18 17 17 16 15 15 15 15 15 14 14 13 12 11 11 10 10 9 8 8 7 6 6 5 5 4
13 14 14 13 12 13 13 13 19 16 16 15 15 20 20 22 23 22 22 22 22 20 19 18 17 17 16 15 15 15 14 14 13 12 12 11 11 10 10 9 8 8 7 6 6 5 5 4 3
15 15 14 10 10 11 15 13 18 18 16 17 18 21 22 23 22 22 23 21 20 19 18 18 17 17 16 15 15 15 14 14 13 12 12 11 11 10 9 9 8 7 7 6 5 5 4 3 3
15 13 11 11 10 13 14 13 18 16 17 17 16 22 23 24 24 23 22 22 21 19 17 17 17 16 16 15 15 15 14 13 13 12 12 11 11 10 9 8 8 7 6 6 5 4 4 3 3
13 12 10 12 11 12 12 12 17 16 15 18 20 21 22 23 24 23 21 21 21 18 16 16 16 15 16 15 15 14 14 13 12 11 11 10 10 10 8 8 7 6 6 5 5 4 4 3 3
14 12 14 13 15 13 15 14 17 16 15 14 17 20 21 21 22 22 21 21 20 20 19 17 16 15 16 15 15 14 13 12 12 11 10 10 9 9 8 7 7 6 5 5 4 4 4 3 3
14 13 12 10 11 12 13 13 14 16 16 14 10 11 12 14 15 15 19 21 20 20 19 16 15 16 16 15 15 14 14 13 11 10 10 10 9 8 8 7 6 6 5 5 4 4 4 3 3
11 12 11 11 13 12 10 12 15 7 8 10 10 12 12 12 12 13 15 17 18 18 18 18 17 15 15 15 14 14 13 12 11 10 10 9 9 8 8 7 6 6 5 5 4 4 4 3 3
10 10 10 7 8 6 6 9 9 9 11 11 11 11 11 10 9 12 13 14 17 16 18 17 15 15 16 15 15 14 13 12 11 10 9 8 8 8 7 6 6 5 5 4 4 4 3 3 3

GFSSGP_850_temp_015.txt.gz
Temp
23 23 23 22 23 22 22 22 21 22 22 20 20 20 21 20 21 22 19 19 19 19 19 19 19 18 18 18 18 17 16 17 17 17 18 18 17 17 16 15 16 16 17 18 17 17 17 17 18
23 23 23 22 23 23 23 21 22 22 20 19 20 20 20 21 19 19 18 18 18 19 19 19 19 18 17 18 18 18 18 19 18 18 18 18 18 18 18 18 18 18 18 17 17 17 17 17 17
23 24 23 21 20 23 23 21 22 20 19 20 20 20 20 19 19 19 19 18 18 19 19 19 19 17 17 18 18 19 19 19 19 19 19 19 18 18 18 18 18 18 18 18 17 16 17 17 17
24 23 22 23 23 22 22 22 21 19 19 20 20 20 19 20 20 19 19 18 18 19 19 19 18 17 16 18 18 19 19 19 19 19 19 19 19 19 19 18 18 18 18 18 17 17 16 16 16
24 23 22 22 22 22 21 20 19 20 20 19 20 20 19 20 20 19 19 18 19 19 19 19 18 17 17 18 18 19 18 19 19 19 19 19 19 19 19 19 19 19 19 19 18 17 17 17 16
23 21 22 22 22 22 21 20 20 20 20 19 19 18 20 21 20 20 18 19 18 18 18 18 17 17 17 18 18 19 18 19 19 19 18 18 18 18 19 19 19 19 18 19 19 18 17 17 17
21 20 21 21 21 22 22 20 20 21 20 20 20 20 20 21 20 19 18 18 18 18 18 18 17 17 17 18 18 19 18 18 18 18 18 18 18 18 19 18 18 18 18 18 19 18 18 17 17
22 19 20 20 21 22 21 20 22 21 21 21 21 21 21 23 20 19 18 18 18 18 18 18 17 17 17 18 18 18 18 18 18 18 18 18 19 18 18 18 18 18 18 18 18 18 18 18 17
20 20 20 20 19 22 20 20 21 21 21 20 21 22 22 22 20 18 18 17 17 17 17 17 17 16 17 18 18 18 18 18 18 18 18 18 18 18 18 18 18 18 18 17 17 17 17 16 16
19 18 19 19 19 20 20 20 21 20 19 19 21 22 22 21 20 20 19 18 18 17 17 17 17 17 17 17 18 18 18 18 18 18 18 18 18 18 18 18 18 18 18 17 17 16 16 16 16
17 19 17 20 20 20 20 19 21 20 19 21 23 25 22 21 20 20 19 20 21 19 18 17 17 17 16 17 18 18 18 18 18 18 18 18 17 17 17 17 17 17 17 16 16 16 16 16 16
18 18 18 20 21 20 19 20 19 20 23 24 24 24 23 21 20 21 20 20 20 19 18 17 17 17 16 17 17 18 18 18 18 17 17 17 17 17 17 16 16 16 16 16 15 15 15 15 15
17 18 19 20 20 19 20 19 20 19 22 23 23 23 22 22 22 21 21 20 19 18 18 18 17 17 17 17 17 17 17 17 17 17 17 17 17 16 16 16 16 16 15 15 15 15 14 14 14
17 18 18 19 19 19 19 19 19 20 22 23 22 22 22 22 22 22 20 20 20 19 18 18 17 17 17 17 17 17 17 17 17 17 17 16 16 16 16 15 15 15 15 15 14 14 14 14 14
18 17 16 17 18 19 18 18 18 21 21 21 23 23 22 22 21 22 22 22 21 20 19 18 17 17 17 17 16 17 17 17 16 16 16 16 16 16 15 15 15 14 14 14 14 14 13 13 13
17 16 17 17 16 18 19 20 20 20 21 21 21 22 22 22 22 22 21 21 21 19 19 18 18 17 17 17 16 16 16 16 16 16 16 16 16 15 15 15 14 14 14 13 13 13 13 13 13
14 18 15 16 16 16 17 18 18 18 18 18 20 20 20 21 21 21 21 21 21 20 20 18 17 17 17 16 16 16 15 15 15 16 16 16 15 15 15 14 14 13 13 13 13 13 12 12 12
16 15 15 15 17 15 16 16 17 18 17 17 19 20 21 21 23 22 22 21 20 20 19 18 17 17 16 16 15 15 15 15 15 15 15 15 15 15 14 14 13 13 12 12 12 12 12 11 12
14 14 15 16 16 16 17 17 17 18 16 16 17 20 22 22 24 23 23 21 20 20 19 18 17 17 16 15 15 14 15 15 15 15 15 15 14 14 14 13 12 12 12 11 11 11 11 10 11
14 14 15 15 15 14 15 16 17 17 18 19 17 18 20 22 23 23 23 22 21 21 20 19 18 17 16 16 16 15 16 15 15 15 14 14 14 13 13 12 12 11 11 10 10 10 10 9 9
13 14 14 15 15 15 14 17 18 17 17 17 17 19 20 19 21 22 22 22 21 20 21 20 19 18 17 16 16 15 15 14 14 14 14 14 13 13 12 12 11 11 10 10 9 9 9 8 7
13 14 15 15 14 16 16 18 19 20 20 16 16 18 21 23 23 23 22 21 21 21 21 20 20 18 17 16 16 15 16 15 15 15 14 14 13 12 12 11 11 10 9 9 9 8 8 7 6
15 14 14 14 14 13 16 16 21 19 19 20 21 20 21 23 23 23 22 22 22 21 20 20 19 18 17 17 16 16 15 15 15 15 14 13 12 12 11 10 10 9 9 8 8 8 7 7 6
15 15 13 11 13 14 17 16 19 20 19 19 19 21 22 20 16 16 17 18 19 20 19 18 18 18 18 17 17 16 15 15 15 14 13 12 12 11 11 10 9 9 8 8 7 7 6 6 5
14 13 13 14 13 15 15 16 19 19 20 19 18 16 15 16 14 14 15 16 16 17 18 19 17 17 16 16 16 16 15 15 15 14 13 13 12 11 11 10 10 9 8 7 7 7 6 5 5
14 14 14 14 15 16 15 15 18 18 16 12 11 11 11 12 12 13 13 15 15 15 15 15 16 15 14 14 15 16 15 15 14 14 13 12 12 12 11 10 9 8 7 7 6 6 6 5 4
13 13 13 13 14 13 15 17 18 19 14 11 12 12 12 11 11 11 13 14 14 16 15 14 14 14 14 15 14 15 15 15 14 14 13 12 11 11 10 9 9 7 7 6 6 6 5 5 4
12 12 11 12 11 12 14 15 15 16 10 11 12 12 11 10 9 9 10 12 12 14 15 12 12 12 13 14 14 15 15 14 14 13 12 11 11 10 9 9 8 7 7 6 6 6 5 5 5
10 10 11 10 11 10 10 12 10 11 11 11 12 11 10 9 8 8 8 10 11 13 14 12 11 11 11 11 12 13 14 14 14 13 12 11 11 10 9 9 8 7 6 6 5 5 5 5 4
10 9 8 6 6 6 5 5 10 11 11 11 10 11 10 9 8 7 8 8 9 11 11 12 11 11 11 12 11 11 13 14 14 12 12 11 10 10 9 8 8 7 6 6 5 5 5 4 4